User: anonymous   Login
Location: Unspecified
(0.0000°N, 0.0000°E)
Time: 22:36:28
(UTC+00:00)
Language:

STARLINK-5936 - Orbit

View from above orbital plane
View from above orbital plane
View from above satellite
View from above satellite

Ground track
Ground track

The orbit is defined by the following mean orbital elements,

1 56011U          26145.56247919 +.00000000 +00000-0 -15443-4 0 00009
2 56011  43.0060 330.9708 0001530 279.0113  81.0566 15.27573227    07
Epoch (UTC): 25 May 2026 13:29:58
Eccentricity: 0.0001530
inclination: 43.0060°
perigee height: 482 km
apogee height: 484 km
right ascension of ascending node: 330.9708°
argument of perigee: 279.0113°
revolutions per day: 15.27573227
mean anomaly at epoch: 81.0566°

The dashed part of the orbit path shows where the satellite is in the earth's shadow,  

DLR